Find Starlink 3843

NORAD ID: 52341 Int'l Des: 2022-045 Owner: SPXS Country: US Constellation: starlink operational
LEOCIRCULAR

Live Position

Loading 3D Globe...

About Starlink 3843

Description loading...

Upcoming Passes

Passes for default location (London). Set your location on the main map for personalized predictions.

Altitude History

Loading altitude history...

Two-Line Element Set

1 52341U 22045L 26119.03413650 -.00000400 00000-0 -70260-5 0 9995
2 52341 53.2185 343.0670 0001237 86.0304 274.0830 15.08834516223246
Epoch: Apr 29, 2026 • Age: 15 hours

Current Status

Altitude 547.0 km
Velocity 7.59 km/s
Sub-Earth Point -23.65°S, 80.8°E
Launch Date Apr 29, 2022
Age 3.9 years
Type internet

Technical Details

Classification Payload
Mass 297.00 kg
Dry Mass 275.00 kg
Total Mass 297.00 kg
Length 0.20 m
Diameter 2.80 m
Span 9.00 m
Shape Box + pan
Manufacturer SPXS
Bus Type Starlink
Phase Status In Orbit
Owner/State SPXS/US

Most Searched